Regional Weather Roundup
Issued by NWS

Home | Current Version | Previous Version | Graphics & Text | Print | Product List | Glossary On
Versions: 1 2 3 4 5 6 7 8 9 10 11 12 13 14 15 16 17 18 19 20 21 22 23 24 25 26 27 28 29 30 31 32 33 34 35 36 37 38 39 40 41 42 43 44 45 46 47 48 49 50
000
ASUS45 KABQ 271410
RWRNM
NEW MEXICO REGIONAL WEATHER ROUNDUP
NATIONAL WEATHER SERVICE ALBUQUERQUE NM
800 AM MDT WED MAY 27 2015

NOTE: "FAIR" MEANS FEW OR NO CLOUDS BELOW 12,000 FEET AGL WITH NO
       SIGNIFICANT WEATHER OR OBSTRUCTIONS TO VISION.

      THIS PRODUCT IS RELEASED AS TWO VERSIONS.  ONE VERSION NEAR
      THE TOP OF THE HOUR CONTAINING PRELIMINARY DATA FROM ALBUQUERQUE
      AND OTHER STATIONS.  A FINAL VERSION WITH ADDITIONAL DATA IS
      ISSUED ABOUT 10 MINUTES AFTER THE HOUR.

NMZ501-503-504-510>518-271500-
NORTHWEST PLATEAU/NORTHCENTRAL MOUNTAINS

CITY           SKY/WX    TMP DP  RH WIND       PRES   REMARKS
FARMINGTON     SUNNY     56  43  61 E13       30.15S
LOS ALAMOS     PTSUNNY   54  37  51 N5        30.27S
SANTA FE       PTSUNNY   57  42  57 N12       30.20S
TAOS           MOSUNNY   52  34  50 SE7       30.26S
ANGEL FIRE     FAIR      42  37  81 CALM      30.33S

$$
NMZ402-403-502-505>509-271500-
WESTCENTRAL MOUNTAINS/SOUTHWEST MOUNTAINS

CITY           SKY/WX    TMP DP  RH WIND       PRES   REMARKS
GALLUP         MOSUNNY   49  36  61 CALM      30.21R
GRANTS         CLOUDY    52  35  52 CALM      30.24R
SILVER CITY      N/A     64  25  22 CALM      30.17R

$$
NMZ407-409-411-412-271500-
SOUTHERN DESERTS

CITY           SKY/WX    TMP DP  RH WIND       PRES   REMARKS
LORDSBURG      FAIR      63  25  23 CALM      30.09R
DEMING         MOSUNNY   59  25  27 CALM      30.10R
LAS CRUCES     SUNNY     69  22  16 CALM      30.11S
HOLLOMAN AFB   SUNNY     67  32  27 NW6       30.08R
ALAMOGORDO     SUNNY     64  32  29 NW3       30.10R
T OR C         MOSUNNY   66  29  24 N6        30.12R

$$
NMZ519>523-271500-
CENTRAL VALLEYS/CENTRAL HIGHLANDS

CITY           SKY/WX    TMP DP  RH WIND       PRES   REMARKS
ALBUQUERQUE    PTSUNNY   59  44  57 N7        30.17R
DOUBLE EAGLE   PTSUNNY   57  45  62 N9        30.19R
MORIARTY ARPT  FAIR      56  46  71 N3        30.23R
CLINES CORNERS PTSUNNY   59  40  49 SE6       30.23R
BELEN          FAIR      60  48  66 NW5       30.17R
SOCORRO        FAIR      60  40  48 N6        30.14S

$$
NMZ524>526-539-540-271500-
SOUTHCENTRAL MOUNTAINS

CITY           SKY/WX    TMP DP  RH WIND       PRES   REMARKS
RUIDOSO        PTSUNNY   59  32  36 CALM      30.27R

$$
NMZ527>531-271500-
NORTHEAST HIGHLANDS/NORTHEAST PLAINS

CITY           SKY/WX    TMP DP  RH WIND       PRES   REMARKS
LAS VEGAS      MOSUNNY   57  40  52 NE5       30.24R
RATON          MOSUNNY   51  46  83 E5        30.21R
CLAYTON        SUNNY     61  54  77 S7        30.15R

$$
NMZ532>537-271500-
EASTCENTRAL PLAINS

CITY           SKY/WX    TMP DP  RH WIND       PRES   REMARKS
TUCUMCARI      SUNNY     67  55  65 NE3       30.09F
CANNON AFB     SUNNY     68  57  68 S3        30.12R
CLOVIS AIRPORT SUNNY     64  55  72 SE3         N/A

$$
NMZ028-029-538-271500-
SOUTHEAST PLAINS

CITY           SKY/WX    TMP DP  RH WIND       PRES   REMARKS
ROSWELL        SUNNY     63  48  58 N6        30.08R
ARTESIA        SUNNY     66  37  34 CALM      30.09R
CARLSBAD       CLOUDY    67  58  72 E3        30.06R
HOBBS          CLOUDY    66  66 100 SE10      30.12R FOG


$$



USA.gov is the U.S. government's official web portal to all federal, state and local government web resources and services.